Time,TemperatureF,DewpointF,PressureIn,WindDirection,WindDirectionDegrees,WindSpeedMPH,WindSpeedGustMPH,Humidity,HourlyPrecipIn,Conditions,Clouds,dailyrainin,SolarRadiationWatts/m^2,SoftwareType,DateUTC
2013-01-27 00:21:00,-8.0,-11.0,-100.00,East,89,1.0,3.0,85,-99.99,,,0.00,0.000000,,2013-01-27 09:21:00,
2013-01-27 01:11:00,-8.0,-11.0,-100.00,SE,124,0.0,2.0,85,-99.99,,,0.00,0.000000,,2013-01-27 10:11:00,
2013-01-27 01:21:00,-8.0,-11.0,-100.00,SE,124,0.0,2.0,85,-99.99,,,0.00,0.000000,,2013-01-27 10:21:00,
2013-01-27 03:21:00,-10.0,-13.0,-100.00,ESE,102,0.0,2.0,86,-99.99,,,0.00,0.000000,,2013-01-27 12:21:00,
2013-01-27 04:11:00,-11.0,-14.0,-100.00,ESE,103,0.0,1.0,85,-99.99,,,0.00,0.000000,,2013-01-27 13:11:00,
2013-01-27 05:11:00,-13.0,-17.0,-100.00,East,98,0.0,1.0,82,-99.99,,,0.00,0.000000,,2013-01-27 14:11:00,
2013-01-27 05:22:00,-13.0,-17.0,-100.00,East,98,0.0,1.0,82,-99.99,,,0.00,0.000000,,2013-01-27 14:22:00,
2013-01-27 06:22:00,-15.0,-19.0,-100.00,ENE,68,0.0,2.0,81,-99.99,,,0.00,0.000000,,2013-01-27 15:22:00,
2013-01-27 07:11:00,-17.0,-21.0,-100.00,East,79,0.0,1.0,80,-99.99,,,0.00,0.000000,,2013-01-27 16:11:00,
2013-01-27 08:12:00,-19.0,-23.0,-100.00,East,81,0.0,1.0,79,-99.99,,,0.00,0.000000,,2013-01-27 17:12:00,
2013-01-27 08:21:00,-19.0,-23.0,-100.00,East,81,0.0,1.0,79,-99.99,,,0.00,0.000000,,2013-01-27 17:21:00,
2013-01-27 09:11:00,-19.0,-23.0,-100.00,East,97,0.0,1.0,79,-99.99,,,0.00,0.000000,,2013-01-27 18:11:00,
2013-01-27 09:22:00,-19.0,-23.0,-100.00,East,97,0.0,1.0,79,-99.99,,,0.00,0.000000,,2013-01-27 18:22:00,
2013-01-27 10:11:00,-19.0,-24.0,-100.00,East,99,0.0,1.0,78,-99.99,,,0.00,2.000000,,2013-01-27 19:11:00,
2013-01-27 10:22:00,-19.0,-24.0,-100.00,East,99,0.0,1.0,78,-99.99,,,0.00,2.000000,,2013-01-27 19:22:00,
2013-01-27 11:11:00,-13.0,-17.0,-100.00,ENE,63,1.0,4.0,82,-99.99,,,0.00,14.000000,,2013-01-27 20:11:00,
2013-01-27 12:12:00,-2.0,-6.0,-100.00,NNE,25,2.0,5.0,84,-99.99,,,0.00,23.000000,,2013-01-27 21:12:00,
2013-01-27 12:22:00,-2.0,-6.0,-100.00,NNE,25,2.0,5.0,84,-99.99,,,0.00,23.000000,,2013-01-27 21:22:00,
2013-01-27 12:32:00,-2.0,-6.0,-100.00,NNE,25,2.0,5.0,84,-99.99,,,0.00,23.000000,,2013-01-27 21:32:00,
2013-01-27 12:42:00,-2.0,-6.0,-100.00,NNE,25,2.0,5.0,84,-99.99,,,0.00,23.000000,,2013-01-27 21:42:00,
2013-01-27 12:51:00,-2.0,-6.0,-100.00,NNE,25,2.0,5.0,84,-99.99,,,0.00,23.000000,,2013-01-27 21:51:00,
2013-01-27 13:11:00,1.0,-5.0,-100.00,North,10,2.0,8.0,74,0.00,,,0.00,30.000000,,2013-01-27 22:11:00,
2013-01-27 13:21:00,1.0,-5.0,-100.00,North,10,2.0,8.0,74,0.00,,,0.00,30.000000,,2013-01-27 22:21:00,
2013-01-27 13:32:00,1.0,-5.0,-100.00,North,10,2.0,8.0,74,0.00,,,0.00,30.000000,,2013-01-27 22:32:00,
2013-01-27 13:42:00,1.0,-5.0,-100.00,North,10,2.0,8.0,74,0.00,,,0.00,30.000000,,2013-01-27 22:42:00,
2013-01-27 13:51:00,1.0,-5.0,-100.00,North,10,2.0,8.0,74,0.00,,,0.00,30.000000,,2013-01-27 22:51:00,
2013-01-27 13:52:00,1.0,-7.0,-100.00,NE,35,2.0,7.0,67,0.00,,,0.00,33.000000,,2013-01-27 22:52:00,
2013-01-27 14:11:00,1.0,-7.0,-100.00,NE,35,2.0,7.0,67,0.00,,,0.00,33.000000,,2013-01-27 23:11:00,
2013-01-27 14:21:00,1.0,-7.0,-100.00,NE,35,2.0,7.0,67,0.00,,,0.00,33.000000,,2013-01-27 23:21:00,
2013-01-27 14:32:00,1.0,-7.0,-100.00,NE,35,2.0,7.0,67,0.00,,,0.00,33.000000,,2013-01-27 23:32:00,
2013-01-27 14:41:00,1.0,-7.0,-100.00,NE,35,2.0,7.0,67,0.00,,,0.00,33.000000,,2013-01-27 23:41:00,
2013-01-27 15:11:00,2.0,-11.0,-100.00,NNE,13,2.0,9.0,53,0.00,,,0.00,36.000000,,2013-01-28 00:11:00,
2013-01-27 15:21:00,2.0,-11.0,-100.00,NNE,13,2.0,9.0,53,0.00,,,0.00,36.000000,,2013-01-28 00:21:00,
2013-01-27 15:32:00,2.0,-11.0,-100.00,NNE,13,2.0,9.0,53,0.00,,,0.00,36.000000,,2013-01-28 00:32:00,
2013-01-27 15:41:00,2.0,-11.0,-100.00,NNE,13,2.0,9.0,53,0.00,,,0.00,36.000000,,2013-01-28 00:41:00,
2013-01-27 15:51:00,2.0,-11.0,-100.00,NNE,13,2.0,9.0,53,0.00,,,0.00,36.000000,,2013-01-28 00:51:00,
2013-01-27 16:11:00,1.0,-15.0,-100.00,North,9,3.0,11.0,45,0.00,,,0.00,23.000000,,2013-01-28 01:11:00,
2013-01-27 16:21:00,1.0,-15.0,-100.00,North,9,3.0,11.0,45,0.00,,,0.00,23.000000,,2013-01-28 01:21:00,
2013-01-27 16:32:00,1.0,-15.0,-100.00,North,9,3.0,11.0,45,0.00,,,0.00,23.000000,,2013-01-28 01:32:00,
2013-01-27 16:42:00,1.0,-15.0,-100.00,North,9,3.0,11.0,45,0.00,,,0.00,23.000000,,2013-01-28 01:42:00,
2013-01-27 16:51:00,1.0,-15.0,-100.00,North,9,3.0,11.0,45,0.00,,,0.00,23.000000,,2013-01-28 01:51:00,
2013-01-27 16:52:00,-2.0,-16.0,-100.00,NNE,13,2.0,7.0,49,0.00,,,0.00,14.000000,,2013-01-28 01:52:00,
2013-01-27 17:11:00,-2.0,-16.0,-100.00,NNE,13,2.0,7.0,49,0.00,,,0.00,14.000000,,2013-01-28 02:11:00,
2013-01-27 17:21:00,-2.0,-16.0,-100.00,NNE,13,2.0,7.0,49,0.00,,,0.00,14.000000,,2013-01-28 02:21:00,
2013-01-27 17:32:00,-2.0,-16.0,-100.00,NNE,13,2.0,7.0,49,0.00,,,0.00,14.000000,,2013-01-28 02:32:00,
2013-01-27 17:41:00,-2.0,-16.0,-100.00,NNE,13,2.0,7.0,49,0.00,,,0.00,14.000000,,2013-01-28 02:41:00,
2013-01-27 18:11:00,-8.0,-18.0,-100.00,ENE,58,0.0,6.0,59,0.00,,,0.00,2.000000,,2013-01-28 03:11:00,
2013-01-27 18:21:00,-8.0,-18.0,-100.00,ENE,58,0.0,6.0,59,0.00,,,0.00,2.000000,,2013-01-28 03:21:00,
2013-01-27 19:11:00,-12.0,-19.0,-100.00,NE,43,1.0,3.0,69,-99.99,,,0.00,0.000000,,2013-01-28 04:11:00,
2013-01-27 19:21:00,-12.0,-19.0,-100.00,NE,43,1.0,3.0,69,-99.99,,,0.00,0.000000,,2013-01-28 04:21:00,
2013-01-27 20:11:00,-12.0,-18.0,-100.00,NE,56,0.0,2.0,72,-99.99,,,0.00,0.000000,,2013-01-28 05:11:00,
2013-01-27 20:21:00,-12.0,-18.0,-100.00,NE,56,0.0,2.0,72,-99.99,,,0.00,0.000000,,2013-01-28 05:21:00,
2013-01-27 21:21:00,-15.0,-21.0,-100.00,East,90,0.0,4.0,74,-99.99,,,0.00,0.000000,,2013-01-28 06:21:00,
2013-01-27 22:21:00,-16.0,-21.0,-100.00,NE,37,0.0,1.0,77,-99.99,,,0.00,0.000000,,2013-01-28 07:21:00,
2013-01-27 23:21:00,-11.0,-15.0,-100.00,NNE,19,2.0,6.0,81,-99.99,,,0.00,0.000000,,2013-01-28 08:21:00,